Location: Boursonne
(49.2024°N, 3.0468°E)
Time: 07:17:07
(UTC+00:00)

Ariane Rocket - Pass Details

Date: 03 March 2021
Orbit: 759 x 771 km, 98.7° (Epoch: 12 April)

Event Time Altitude Azimuth Distance (km) Brightness Sun altitude
Exits shadow 18:42:04 13° 118° (ESE) 2,094 4.7 -11.9°
Maximum altitude 18:45:49 31° 63° (ENE) 1,348 3.8 -12.5°
Drops below altitude 10° 18:50:14 10° 3° (N) 2,324 5.5 -13.2°
Sets 18:52:46 0° 353° (N) 3,254 6.4 -13.6°
